This demonstration page uses our WeatherBlox Daily Observations layout. Learn more.

Left ArrowRight Arrow

44.8408, -93.29828

Hourly Observations for November 6, 2016

Temp ( °F °C ) Dew Point ( °F °C ) Humidity (%) Winds ( mph kmh ) Pressure ( in mb ) Visibility ( mi km ) Precip ( " mm )
12:53 am 00:53 Clear 53 11.7 43 6.1 69 69 SE 5 7 30.21 1023 10 16 0.00 0.00
1:53 am 01:53 Clear 52 11.1 43 6.1 72 72 SE 5 7 30.21 1023 10 16 0.00 0.00
1:53 am 01:53 Clear 51 10.6 43 6.1 74 74 SSE 3 6 30.21 1023 10 16 0.00 0.00
2:53 am 02:53 Clear 49 9.4 42 5.6 77 77 Calm 30.21 1023 10 16 0.00 0.00
3:53 am 03:53 Clear 48 8.9 41 5 77 77 Calm 30.22 1023 10 16 0.00 0.00
4:53 am 04:53 Clear 49 9.4 41 5 74 74 S 3 6 30.22 1023 10 16 0.00 0.00
5:53 am 05:53 Clear 49 9.4 41 5 74 74 S 6 9 30.22 1024 10 16 0.00 0.00
6:53 am 06:53 Clear 47 8.3 41 5 80 80 SE 5 7 30.23 1024 10 16 0.00 0.00
7:53 am 07:53 Sunny 48 8.9 42 5.6 80 80 SSE 6 9 30.24 1024 10 16 0.00 0.00
8:53 am 08:53 Sunny 53 11.7 44 6.7 72 72 SE 6 9 30.24 1024 10 16 0.00 0.00
9:53 am 09:53 Sunny 59 15 45 7.2 60 60 VRB 3 6 30.24 1024 10 16 0.00 0.00
10:53 am 10:53 Sunny 64 17.8 42 5.6 45 45 SSW 7 11 30.24 1024 10 16 0.00 0.00
11:53 am 11:53 Sunny 66 18.9 41 5 40 40 SSW 9 15 30.21 1023 10 16 0.00 0.00
12:53 pm 12:53 Mostly Sunny 69 20.6 40 4.4 35 35 S 10 17 30.18 1022 10 16 0.00 0.00
1:53 pm 13:53 Mostly Sunny 70 21.1 38 3.3 31 31 S 14 22 30.16 1022 10 16 0.00 0.00
2:53 pm 14:53 Mostly Sunny 69 20.6 40 4.4 35 35 S 13 20 30.15 1021 10 16 0.00 0.00
3:53 pm 15:53 Mostly Sunny 68 20 40 4.4 36 36 S 14 22 30.16 1021 10 16 0.00 0.00
4:53 pm 16:53 Mostly Sunny 66 18.9 41 5 40 40 S 12 19 30.16 1021 10 16 0.00 0.00
5:53 pm 17:53 Mostly Clear 63 17.2 41 5 45 45 S 10 17 30.16 1021 10 16 0.00 0.00
6:53 pm 18:53 Mostly Clear 59 15 42 5.6 54 54 SSE 8 13 30.16 1022 10 16 0.00 0.00
7:53 pm 19:53 Mostly Clear 56 13.3 42 5.6 60 60 SSE 6 9 30.16 1021 10 16 0.00 0.00
8:53 pm 20:53 Clear 53 11.7 41 5 64 64 SSE 7 11 30.16 1021 10 16 0.00 0.00
9:53 pm 21:53 Clear 52 11.1 42 5.6 69 69 SSE 7 11 30.16 1021 10 16 0.00 0.00
10:53 pm 22:53 Clear 50 10 41 5 71 71 SSE 8 13 30.16 1021 10 16 0.00 0.00
11:53 pm 23:53 Clear 49 9.4 41 5 74 74 SSE 8 13 30.15 1021 10 16 0.00 0.00

Powered by AerisWeather